Weather in Denyatino

Russia / Vladimir Oblast     55°30′26″N   41°40′23″E
temp.,
°C
wind,
m/s
gust,
m/s
humid.,
%
clouds,
%
prec.,
mm/h
press.,
hPa
HPBL,
m
4 august, wed
wed400:00+17wnw2578100 0.0 1012101
03:00+16wnw2572100 0.0 1012103
06:00+16wnw2573100 0.0 1014161
09:00+21nw344895 0.0 1014731
12:00+24wnw453599 0.0 10142584
15:00+22wnw3544100 0.0 1014925
18:00+21wnw234883 0.0 1015200
21:00+16wnw33635 0.0 101638
5 august, thu
thu500:00+17nw2559100 0.0 1016112
03:00+14wnw2267100 0.0 101723
06:00+16n126098 0.0 101881
09:00+21ene224433 0.0 1018701
12:00+25sw1234100 0.0 10172415
15:00+24w1235100 0.0 10172054
18:00+22ssw234778 0.0 1017145
21:00+18sse225277 0.0 101611
6 august, fri
fri600:00+17se2262100 0.0 101634
03:00+17nw2260100 0.0 101651
06:00+15e4778100 0.3 1015178
09:00+15ese3780100 0.6 1015240
12:00+17sse3880100 0.9 1015293
15:00+15se2593100 2.4 1015241
18:00+15e3491100 0.6 101487
21:00+15ene41091100 0.7 1014231
7 august, sat
sat700:00+15ne4993100 0.0 1013211
03:00+15ene369398 0.0 1013148
06:00+16se2590100 0.3 1014141
09:00+18sse2277100 0.6 101461
12:00+18ese2379100 0.3 101459
15:00+26ene3447100 0.3 1014537
18:00+25ene465295 0.0 1014255
21:00+18ene377236 0.0 1015116
8 august, sun
sun800:00+16ene3780100 0.0 1015109
03:00+16e2375100 0.0 101537
06:00+17ene356999 0.0 1015116
09:00+24e464583 0.0 1014400
12:00+27se4639100 0.0 1014667
15:00+28se3437100 0.0 1013699
18:00+26n2243100 0.0 101321
21:00+23ene2652100 0.0 1013155